Homer, AK

8:52 PM AKDT on July 24, 2017 (GMT -0800)
Homer

Weather History for PAHO - February, 2013

Change the Weather History Date:

Wednesday, February 20, 2013

  Actual Average Record
Temperature  
Mean Temperature 28 °F -  
Max Temperature 30 °F 30 °F 48 °F (1934)
Min Temperature 26 °F 18 °F -6 °F (1954)
Degree Days  
Heating Degree Days 37    
Moisture  
Dew Point 24 °F    
Average Humidity 83    
Maximum Humidity 93    
Minimum Humidity 75    
Precipitation  
Precipitation 0.09 in - - ()
Sea Level Pressure  
Sea Level Pressure 29.10 in    
Wind  
Wind Speed 7 mph (NE)    
Max Wind Speed 17 mph    
Max Gust Speed 21 mph    
Visibility 7 miles    
Events Snow    
Averages and records for this station are not official NWS values.
T = Trace of Precipitation, MM = Missing Value Source: NWS Daily Summary

Daily Weather History Graph

Daily Weather History Graph

Search for Another Location

Airport or City:

Trip Planner

Search our weather history database for the weather conditions in past years. The results will help you decide how hot, cold, wet, or windy it might be!

Date:

Astronomy

Feb. 20, 2013 Rise Set
Actual Time 8:27 AM AKST 6:12 PM AKST
Civil Twilight 7:45 AM AKST 6:55 PM AKST
Nautical Twilight 6:57 AM AKST 7:42 PM AKST
Astronomical Twilight 6:09 AM AKST 8:30 PM AKST
Moon 12:54 PM AKST (2/20) 5:44 AM AKST (2/20)
Length of Visible Light 11h 09m
Length of Day
9h 44m
Waxing Gibbous, 77% of the Moon is Illuminated
Feb 20
Waxing Gibbous
Feb 25
Full
Mar 4
Last Quarter
Mar 11
New
Mar 19
First Quarter

Hourly Weather History & Observations

Time (AKST) Temp. Windchill Dew Point Humidity Pressure Visibility Wind Dir Wind Speed Gust Speed Precip Events Conditions
12:53 AM 28.0 °F 15.7 °F 23.0 °F 81% 29.09 in 10.0 mi ENE 17.3 mph - N/A   Overcast
1:53 AM 28.0 °F 15.7 °F 23.0 °F 81% 29.08 in 10.0 mi ENE 17.3 mph - N/A   Overcast
3:53 AM 28.0 °F 18.1 °F 23.0 °F 81% 29.04 in 10.0 mi ENE 11.5 mph 20.7 mph N/A   Overcast
4:53 AM 28.0 °F 19.3 °F 21.9 °F 78% 29.01 in 10.0 mi NE 9.2 mph 18.4 mph N/A   Overcast
5:53 AM 27.0 °F 19.5 °F 21.0 °F 78% 29.00 in 10.0 mi ENE 6.9 mph - N/A   Overcast
6:53 AM 26.1 °F 17.6 °F 21.0 °F 81% 28.99 in 10.0 mi ENE 8.1 mph - N/A   Overcast
7:53 AM 26.1 °F 17.6 °F 21.0 °F 81% 28.98 in 10.0 mi ENE 8.1 mph - N/A   Overcast
8:53 AM 26.1 °F - 19.9 °F 78% 28.99 in 10.0 mi Calm Calm - N/A   Overcast
9:53 AM 27.0 °F 23.0 °F 21.0 °F 78% 29.00 in 9.0 mi ENE 3.5 mph - N/A   Overcast
10:17 AM 26.6 °F 21.2 °F 21.2 °F 80% 29.01 in 1.5 mi ENE 4.6 mph - 0.00 in Snow Light Snow
10:53 AM 27.0 °F 21.6 °F 23.0 °F 85% 29.02 in 1.0 mi NE 4.6 mph - 0.01 in Snow Light Snow
11:00 AM 26.6 °F 21.2 °F 23.0 °F 86% 29.02 in 1.0 mi NE 4.6 mph - 0.01 in Snow Light Snow
11:19 AM 26.6 °F 22.6 °F 23.0 °F 86% 29.02 in 0.8 mi ENE 3.5 mph - 0.01 in Snow Light Snow
11:38 AM 26.6 °F 22.6 °F 23.0 °F 86% 29.03 in 1.2 mi ENE 3.5 mph - 0.02 in Snow Light Snow
11:45 AM 28.4 °F 24.6 °F 23.0 °F 80% 29.03 in 10.0 mi ENE 3.5 mph - 0.02 in Snow Light Snow
11:53 AM 28.0 °F 24.2 °F 23.0 °F 81% 29.04 in 10.0 mi NE 3.5 mph - 0.02 in Snow Light Snow
12:53 PM 28.9 °F - 24.1 °F 82% 29.05 in 10.0 mi Calm Calm - 0.00 in   Overcast
1:37 PM 30.2 °F 25.4 °F 24.8 °F 80% 29.05 in 10.0 mi WSW 4.6 mph - N/A   Mostly Cloudy
1:53 PM 28.9 °F 22.8 °F 25.0 °F 85% 29.06 in 10.0 mi WSW 5.8 mph - N/A   Mostly Cloudy
2:53 PM 30.0 °F 24.1 °F 26.1 °F 85% 29.08 in 10.0 mi SW 5.8 mph - N/A   Overcast
3:00 PM 30.2 °F 25.4 °F 26.6 °F 86% 29.08 in 10.0 mi SW 4.6 mph - N/A   Overcast
3:03 PM 30.2 °F 24.3 °F 26.6 °F 86% 29.08 in 10.0 mi WSW 5.8 mph - N/A   Overcast
3:31 PM 30.2 °F 24.3 °F 24.8 °F 80% 29.09 in 5.0 mi West 5.8 mph - 0.00 in Snow Light Snow
3:53 PM 30.0 °F 25.2 °F 26.1 °F 85% 29.11 in 7.0 mi WSW 4.6 mph - 0.01 in Snow Light Snow
4:53 PM 30.0 °F - 26.1 °F 85% 29.13 in 7.0 mi Calm Calm - 0.00 in Snow Light Snow
5:00 PM 30.2 °F - 26.6 °F 86% 29.13 in 2.0 mi Calm Calm - 0.00 in Snow Light Snow
5:20 PM 30.2 °F - 26.6 °F 86% 29.14 in 1.0 mi Calm Calm - 0.00 in Snow Light Snow
5:53 PM 28.9 °F 25.2 °F 26.1 °F 89% 29.16 in 1.0 mi South 3.5 mph - 0.03 in Snow Light Snow
6:28 PM 28.4 °F - 26.6 °F 93% 29.16 in 3.0 mi Calm Calm - 0.01 in Snow Light Snow
6:53 PM 28.0 °F - 26.1 °F 92% 29.18 in 4.0 mi Calm Calm - 0.01 in Snow Light Snow
7:53 PM 28.9 °F - 26.1 °F 89% 29.20 in 4.0 mi Calm Calm - 0.01 in Snow Light Snow
8:51 PM 28.4 °F - 23.0 °F 80% 29.21 in 7.0 mi Calm Calm - 0.00 in Snow Light Snow
8:53 PM 28.9 °F - 21.9 °F 75% 29.22 in 8.0 mi Calm Calm - 0.00 in Snow Light Snow
9:38 PM 28.4 °F 23.3 °F 23.0 °F 80% 29.22 in 10.0 mi WSW 4.6 mph - 0.00 in   Overcast
9:53 PM 28.9 °F 25.2 °F 23.0 °F 78% 29.23 in 10.0 mi NNW 3.5 mph - 0.00 in   Overcast
10:53 PM 28.9 °F - 24.1 °F 82% 29.24 in 10.0 mi Calm Calm - N/A   Overcast
11:14 PM 28.4 °F 24.6 °F 24.8 °F 86% 29.24 in 10.0 mi NE 3.5 mph - N/A   Overcast
11:43 PM 28.4 °F 24.6 °F 24.8 °F 86% 29.24 in 10.0 mi ENE 3.5 mph - N/A   Overcast
11:53 PM 28.0 °F 22.8 °F 25.0 °F 88% 29.25 in 10.0 mi ENE 4.6 mph - N/A   Overcast